Orbital Elements at Epoch 2459200.5 (2020-Dec-17.0) TDB
Reference: JPL 17 (heliocentric ecliptic J2000)
Element | Value | Uncertainty (1-sigma) | Units |
e | .1639381271852802 | 5.4326e-08 | |
a | 2.77480715386288 | 2.2558e-08 | au |
q | 2.319910465758282 | 1.5946e-07 | au |
i | 14.45245264089749 | 7.8175e-06 | deg |
node | 45.235039699319 | 2.2429e-05 | deg |
peri | 216.9068596700273 | 3.8649e-05 | deg |
M | 352.8946357299313 | 3.5007e-05 | deg |
tp | 2459233.822032384893 (2021-Jan-19.32203239) | 0.00016435 | TDB |
period | 1688.292282085262 4.62 | 2.0587e-05 5.636e-08 | d yr |
n | .2132332202308908 | 2.6002e-09 | deg/d |
Q | 3.229703841967479 | 2.6256e-08 | au |
|
| | Orbit Determination Parameters
Additional Information
|